Regional Weather Roundup
Issued by NWS

Home | Current Version | Previous Version | Text Only | Print | Product List | Glossary On
Versions: 1 2 3 4 5 6 7 8 9 10 11 12 13 14 15 16 17 18 19 20 21 22 23 24 25 26 27
000
ASUS44 KBMX 201510
RWRAL

ALABAMA REGIONAL WEATHER ROUNDUP
NATIONAL WEATHER SERVICE BIRMINGHAM AL
900 AM CST SAT JAN 20 2018

NOTE: "FAIR" INDICATES FEW OR NO CLOUDS BELOW 12,000 FEET
WITH NO SIGNIFICANT WEATHER AND/OR OBSTRUCTIONS TO VISIBILITY.

THE REMARK "TC" DENOTES TEMPERATURE IN DEGREES CELSIUS.

ALZ001>011-014-016>018-020-201600-
NORTH ALABAMA

CITY           SKY/WX    TMP DP  RH WIND       PRES   REMARKS
MUSCLE SHOALS  CLOUDY    49  27  42 S6        30.26R
HUNTSVILLE     CLOUDY    49  31  49 S7        30.28R
DECATUR        CLOUDY    48  26  42 S8        30.28S
HALEYVILLE     CLOUDY    48  26  42 S6        30.28R
GADSDEN        CLOUDY    42  24  49 CALM      30.30R
$$

ALZ012-013-022-023-030>036-040>044-201600-
WEST CENTRAL ALABAMA

CITY           SKY/WX    TMP DP  RH WIND       PRES   REMARKS
TUSCALOOSA     FAIR      50  26  39 S6        30.30R
DEMOPOLIS        N/A     45  26  47 SE5       30.31R
$$

ALZ015-024>026-033>036-041>044-201600-
CENTRAL ALABAMA

CITY           SKY/WX    TMP DP  RH WIND       PRES   REMARKS
BIRMINGHAM     FAIR      50  21  32 SW8       30.31S
MONTGOMERY     CLOUDY    42  27  55 CALM      30.35R
SHELBY CO ARPT FAIR      46  25  43 VRB3      30.30R
MAXWELL AFB    CLOUDY    49  37  62 CALM      30.34R
GREENVILLE     FAIR      50  17  27 VRB3      30.32R
SELMA          CLOUDY    45  27  49 SE5       30.34R
PRATTVILLE     CLOUDY    43  20  41 CALM      30.34R
BESSEMER       FAIR      48  23  37 S6        30.30R
TALLADEGA      CLOUDY    40  28  60 S5        30.31S
PELL CITY      PTSUNNY   43  28  56 CALM      30.30F
MARION         CLOUDY    43  31  61 SE3       30.31R
SYLACAUGA      CLOUDY    44  32  60 CALM      30.32R
$$

ALZ019-021-028-029-037-038-045>048-201600-
EAST CENTRAL ALABAMA

CITY           SKY/WX    TMP DP  RH WIND       PRES   REMARKS
ANNISTON       CLOUDY    40  24  53 CALM      30.31R
ALEXANDER CITY CLOUDY    41  30  65 CALM      30.31S
AUBURN         CLOUDY    44  24  45 CALM      30.32R
$$

ALZ051>064-201600-
SOUTHWEST ALABAMA

CITY           SKY/WX    TMP DP  RH WIND       PRES   REMARKS
MOBILE         PTSUNNY   52  32  46 E7        30.31R
BROOKLEY FIELD FAIR      49  38  65 CALM      30.32R
EVERGREEN      FAIR      46  25  43 CALM      30.33R
$$

ALZ049-050-065>069-201600-
SOUTHEAST ALABAMA

CITY           SKY/WX    TMP DP  RH WIND       PRES   REMARKS
DOTHAN         FAIR      50  22  33 E3        30.36R
OZARK          FAIR      47  17  30 E5        30.33R
TROY           CLOUDY    42  29  59 CALM      30.33R
EUFAULA        FAIR      43  31  62 SE3       30.33R
$$




USA.gov is the U.S. government's official web portal to all federal, state and local government web resources and services.